Location: Unspecified
(41.9031°N, 12.4386°E)
Time: 09:29:11
(UTC+02:00)

ISS - Visible Passes

Search period start: 26 May 2017 00:00
Search period end: 05 June 2017 00:00
Orbit: 402 x 408 km, 51.6° (Epoch: 26 May)

Date Brightness Start Highest point End Pass type
(mag) Time Alt. Az. Time Alt. Az. Time Alt. Az.
26 May -0.7 00:15:14 10° NW 00:17:22 16° N 00:19:31 10° NNE visible
26 May -0.9 01:52:24 10° NNW 01:54:48 18° NNE 01:57:12 10° ENE visible
26 May -3.4 03:28:32 10° NW 03:31:48 63° NNE 03:35:02 10° ESE visible
26 May -2.1 05:05:55 10° W 05:07:57 15° SW 05:09:58 10° S visible
26 May -3.3 21:44:48 10° WSW 21:48:05 64° NNW 21:51:22 10° NE visible
26 May -0.9 23:22:39 10° WNW 23:25:04 18° NNW 23:27:29 10° NE visible
27 May -0.7 01:00:21 10° NNW 01:02:29 16° N 01:04:38 10° NE visible
27 May -2.3 02:36:34 10° NW 02:39:40 37° NNE 02:42:45 10° E visible
27 May -3.0 04:13:12 10° WNW 04:16:05 28° SW 04:18:57 10° SSE visible
27 May -1.2 22:30:02 10° WNW 22:32:47 23° NNW 22:35:31 10° NE visible
28 May -0.6 00:08:08 10° NW 00:10:08 15° N 00:12:09 10° NE visible
28 May -1.6 01:44:37 10° NW 01:47:24 26° NNE 01:47:24 26° NNE visible
28 May -1.8 21:37:30 10° W 21:40:32 32° NNW 21:43:34 10° NE visible
28 May -0.7 23:15:41 10° NW 23:17:46 15° N 23:19:51 10° NE visible
29 May -1.2 00:52:40 10° NW 00:55:11 20° NNE 00:55:58 18° NE visible
29 May -0.8 22:23:06 10° NW 22:25:24 17° N 22:27:43 10° NNE visible
30 May -0.9 00:00:37 10° NNW 00:02:51 17° N 00:05:02 10° NE visible
30 May -1.1 01:36:46 10° NW 01:37:40 17° NW 01:37:40 17° NW visible
30 May -1.1 21:30:27 10° WNW 21:33:04 21° NNW 21:35:40 10° NE visible
30 May -0.8 23:08:25 10° NW 23:10:27 15° N 23:12:30 10° NE visible
31 May -1.6 00:44:47 10° NW 00:46:57 26° N 00:46:57 26° N visible
31 May -0.8 22:16:01 10° NW 22:18:03 15° N 22:20:05 10° NE visible
31 May -1.5 23:52:47 10° NW 23:55:26 22° NNE 23:56:19 19° NE visible
01 Jun -0.9 21:23:26 10° NW 21:25:39 16° N 21:27:51 10° NNE visible
01 Jun -1.1 23:00:44 10° NNW 23:03:04 18° NNE 23:05:24 10° ENE visible
02 Jun -1.6 00:36:52 10° NW 00:38:22 24° NW 00:38:22 24° NW visible
02 Jun -0.9 22:08:33 10° NW 22:10:39 16° N 22:12:45 10° NE visible
02 Jun -2.3 23:44:49 10° NW 23:47:51 34° NNE 23:47:51 34° NNE visible
03 Jun -1.0 21:16:12 10° NW 21:18:13 15° N 21:20:14 10° NE visible
03 Jun -1.7 22:52:48 10° NW 22:55:33 24° NNE 22:57:21 16° ENE visible
04 Jun -1.3 00:29:01 10° WNW 00:30:00 18° WNW 00:30:00 18° WNW visible
04 Jun -1.3 22:00:44 10° NW 22:03:11 19° NNE 22:05:37 10° ENE visible
04 Jun -3.0 23:36:51 10° NW 23:39:31 51° NNW 23:39:31 51° NNW visible
